Location: Paddlesworth
(51.1000°N, 1.1333°E)
Time: 14:22:45
(UTC+00:00)

Okean 1 - Visible Passes

Search period start: 21 September 2021 00:00
Search period end: 01 October 2021 00:00
Orbit: 536 x 555 km, 82.5° (Epoch: 20 September)

Date Brightness Start Highest point End Pass type
(mag) Time Alt. Az. Time Alt. Az. Time Alt. Az.
23 Sep 3.6 05:07:53 10° S 05:11:50 73° E 05:15:48 10° NNE visible
24 Sep 3.5 05:02:16 10° S 05:06:12 77° E 05:10:11 10° NNE visible
25 Sep 3.4 04:56:39 10° S 05:00:36 81° E 05:04:34 10° NNE visible
26 Sep 3.3 04:51:02 10° S 04:54:58 85° E 04:58:58 10° NNE visible
27 Sep 3.3 04:45:24 10° S 04:49:22 90° ENE 04:53:21 10° N visible
28 Sep 6.7 03:07:31 10° E 03:08:06 10° E 03:08:40 10° ENE visible
28 Sep 3.2 04:39:47 10° S 04:43:44 86° W 04:47:44 10° N visible
29 Sep 6.6 03:01:26 10° E 03:02:27 11° E 03:03:28 10° ENE visible
29 Sep 3.2 04:34:10 10° SSW 04:38:07 82° W 04:42:07 10° N visible
30 Sep 6.5 02:55:29 10° E 02:56:48 11° E 02:58:07 10° ENE visible
30 Sep 3.2 04:28:33 10° SSW 04:32:30 78° W 04:36:30 10° N visible
